TimeEST,TemperatureF,Dew PointF,Humidity,Sea Level PressureIn,VisibilityMPH,Wind Direction,Wind SpeedMPH,Gust SpeedMPH,PrecipitationIn,Events,Conditions,WindDirDegrees,DateUTC
12:15 AM,44.6,42.8,93,30.29,0.2,Calm,Calm,-,N/A,,Unknown,0,2013-01-29 05:15:00
12:35 AM,44.6,42.8,93,30.29,5.0,Calm,Calm,-,N/A,,Partly Cloudy,0,2013-01-29 05:35:00
12:55 AM,42.8,42.8,100,30.28,2.5,Calm,Calm,-,N/A,,Clear,0,2013-01-29 05:55:00
1:15 AM,42.8,41.0,93,30.28,0.8,Calm,Calm,-,N/A,,Unknown,0,2013-01-29 06:15:00
1:35 AM,42.8,42.8,100,30.28,0.5,Calm,Calm,-,N/A,,Unknown,0,2013-01-29 06:35:00
1:55 AM,42.8,41.0,93,30.28,0.2,Calm,Calm,-,N/A,,Unknown,0,2013-01-29 06:55:00
2:15 AM,42.8,42.8,100,30.27,0.2,Calm,Calm,-,N/A,,Unknown,0,2013-01-29 07:15:00
2:35 AM,42.8,42.8,100,30.27,0.2,Calm,Calm,-,N/A,,Unknown,0,2013-01-29 07:35:00
2:55 AM,42.8,39.2,87,30.27,0.8,Calm,Calm,-,N/A,,Unknown,0,2013-01-29 07:55:00
3:15 AM,42.8,41.0,93,30.26,2.0,Calm,Calm,-,N/A,,Clear,0,2013-01-29 08:15:00
3:35 AM,41.0,39.2,93,30.26,2.5,West,4.6,-,N/A,,Clear,270,2013-01-29 08:35:00
3:55 AM,42.8,42.8,100,30.26,2.5,NNW,3.5,-,N/A,,Clear,330,2013-01-29 08:55:00
4:15 AM,42.8,42.8,100,30.26,2.5,Calm,Calm,-,N/A,,Clear,0,2013-01-29 09:15:00
4:35 AM,42.8,42.8,100,30.26,2.5,West,3.5,-,N/A,,Clear,280,2013-01-29 09:35:00
4:55 AM,44.6,42.8,93,30.26,1.2,West,3.5,-,N/A,,Clear,280,2013-01-29 09:55:00
5:15 AM,44.6,42.8,93,30.26,1.8,Calm,Calm,-,N/A,,Clear,0,2013-01-29 10:15:00
5:35 AM,44.6,44.6,100,30.26,1.0,Calm,Calm,-,N/A,,Clear,0,2013-01-29 10:35:00
5:50 AM,46.4,44.6,93,30.26,3.0,Calm,Calm,-,N/A,Fog,Patches of Fog,0,2013-01-29 10:50:00
5:55 AM,46.4,44.6,93,30.26,0.5,Calm,Calm,-,N/A,,Unknown,0,2013-01-29 10:55:00
6:50 AM,44.6,44.6,100,30.27,1.0,Calm,Calm,-,N/A,,Overcast,0,2013-01-29 11:50:00
7:14 AM,44.6,44.6,100,30.27,0.2,Calm,Calm,-,N/A,Fog,Fog,0,2013-01-29 12:14:00
7:45 AM,44.6,44.6,100,30.27,0.2,Calm,Calm,-,N/A,Fog,Fog,0,2013-01-29 12:45:00
8:48 AM,51.8,51.8,100,30.27,0.2,Calm,Calm,-,N/A,Fog,Fog,0,2013-01-29 13:48:00
9:50 AM,55.4,55.4,100,30.27,2.0,West,5.8,-,N/A,,Overcast,280,2013-01-29 14:50:00
10:00 AM,57.2,55.4,94,30.27,7.0,West,9.2,-,N/A,,Partly Cloudy,270,2013-01-29 15:00:00
10:45 AM,66.2,60.8,83,30.26,8.0,WSW,8.1,-,N/A,,Clear,250,2013-01-29 15:45:00
12:45 PM,71.6,59.0,64,30.20,10.0,SSW,13.8,-,N/A,,Scattered Clouds,200,2013-01-29 17:45:00
12:50 PM,68.0,57.2,68,30.23,10.0,SSE,11.5,-,N/A,,Clear,160,2013-01-29 17:50:00
1:45 PM,69.8,60.8,73,30.17,10.0,South,11.5,17.3,N/A,,Scattered Clouds,190,2013-01-29 18:45:00
2:50 PM,69.8,60.8,73,30.16,10.0,SSW,15.0,-,N/A,,Scattered Clouds,200,2013-01-29 19:50:00
3:45 PM,69.8,59.0,68,30.15,10.0,SSW,11.5,-,N/A,,Scattered Clouds,200,2013-01-29 20:45:00
4:45 PM,64.4,57.2,77,30.15,10.0,South,12.7,-,N/A,,Scattered Clouds,190,2013-01-29 21:45:00
5:45 PM,62.6,57.2,82,30.15,10.0,SSW,9.2,-,N/A,,Partly Cloudy,200,2013-01-29 22:45:00
6:45 PM,60.8,59.0,94,30.15,10.0,SSW,13.8,-,N/A,,Clear,200,2013-01-29 23:45:00
7:50 PM,59.0,57.2,94,30.15,8.0,SSW,15.0,-,N/A,Fog,Patches of Fog,210,2013-01-30 00:50:00
8:50 PM,62.6,60.8,94,30.16,8.0,SSW,11.5,-,N/A,,Clear,210,2013-01-30 01:50:00
9:50 PM,60.8,57.2,88,30.16,2.0,SSW,9.2,-,N/A,,Scattered Clouds,200,2013-01-30 02:50:00
10:05 PM,60.8,59.0,94,30.16,0.5,SSW,8.1,-,N/A,Fog,Fog,210,2013-01-30 03:05:00
10:55 PM,62.6,60.8,94,30.16,0.8,South,6.9,-,N/A,,Overcast,190,2013-01-30 03:55:00
11:15 PM,60.8,60.8,100,30.16,0.5,South,8.1,-,N/A,,Overcast,180,2013-01-30 04:15:00
11:35 PM,60.8,60.8,100,30.15,0.8,South,4.6,-,N/A,,Overcast,190,2013-01-30 04:35:00
11:55 PM,60.8,60.8,100,30.15,0.8,South,8.1,-,N/A,,Overcast,190,2013-01-30 04:55:00